Location: Puketoi
(40.5833°S, 176.0167°E)
Time: 16:51:26
(UTC+00:00)

PAYLOAD A - Pass Details

Date: 27 September 2023
Orbit: 691 x 830 km, 98.5° (Epoch: 10 December)

Event Time Altitude Azimuth Distance (km) Brightness Sun altitude
Exits shadow 14:28:11 30° 160° (SSE) 1,463 5.8 -36.9°
Drops below altitude 10° 14:31:13 10° 180° (S) 2,470 7.0 -36.5°
Sets 14:33:42 0° 186° (S) 3,412 7.8 -36.1°
